SL-16 DEB, 23707

Orbit data source: Space-Track

SL-16 DEB, 23707 is space debris in LEO originally from a launch on Tue, 31 Oct 1995 UTC launched from the Tyuratam Missile And Space Complex (TTMTR). Debris objects in space refer to the collection of defunct objects orbiting the Earth. Examples of debris include non-operational satellites, rocket bodies, and fragments generated from explosions, collisions, or faulty payload assembly.

Loading next visibility...
Identifier
23707, 1995-058D
Orbit
LEO
Country
Flag of CISCIS
Related business
Manufacturer
Yuzhnoe
Mission
Spacecraft
Bus & Motor
SEP MOTOR COVER, Unknown motor
Mass
~0 kg wet, ~1 kg dry
Launch date (UTC)
1995-10-31 (31 years ago)
Launch vehicle
Unknown
Launch site
Tyuratam Missile And Space Complex (TTMTR)
Object type
Payload
Rocket body
Debris
Shape & HBR
CONE, 0.1 m
Radar Cross Section
Medium (>0.1 m² and <1 m²)

Expand to show TLE details & history
Last TLE update: 19 hours ago

TLE from 19 hours ago
0 SL-16 DEB
1 23707U 95058D   26266.55410141  .00000079  00000-0  11483-3 0  9995
2 23707  70.9940 300.8029 0206462 339.3542 142.0662 13.72544549546865
Epoch: 2026-09-23T13:17Z
TLE epoch observation values (Epoch: 2026-09-23T13:17:54.361Z)
Latitude
52.69932°
Longitude
-107.81029°
Altitude
1,119.645 km
Speed
7.238 km/s
True Right ascension
06h 16m 16s
True Declination
52° 32' 29"
Sunlit
Object was in daylight at epoch
Visualization orbit readout
Latitude
Unknown
Longitude
Unknown
Altitude
Unknown
Speed
Unknown
Apparent Right ascension
Unknown
Apparent Declination
Unknown
Sunlit
N/A
Visualization observer readout
Local Sidereal Time
01:16:48
Azimuth
Unknown
Elevation
Unknown
Doppler factor
Unknown
Orbital elements
Apogee altitude
1,140.507 km
Perigee altitude
836.325 km
Semi-major axis
7,366.553 km
Eccentricity
0.02065
Inclination
70.994°
RAAN
300.8029°
Arg. of periapsis
339.3542°
True anomaly
143.49144°
Mean anomaly
142.0662°
Eccentric anomaly
142.78171°
Mean motion
3.43279 °/min
Orbital period
104.87 mins
BSTAR
0.00011483
Loading maneuver chart data...
Computing Atmospheric mass density...
Loading historical data...
Loading historical data...
Loading historical data...
Loading historical data...
Loading historical data...
Loading historical data...
Loading historical data...

Documentation

Showing up to 5 results
|